DWEW6128 Weather Reports


time (UTC)temp
C
wind
direction
speed
KPH
gust
KPH
rain 1hr
cm
rain 24hr
cm
rain mn
cm
humidity
%
barometer
mb
20220629030136 25 177 4.8 11.3 0.00 0.00 0.00 44 1011.3
20220629025135 26 166 4.8 11.3 0.00 0.00 0.00 43 1011.3
20220629024134 25 200 8.0 9.7 0.00 0.00 0.00 43 1011.5
20220629023135 25 179 8.0 12.9 0.00 0.00 0.00 43 1011.5
20220629022135 25 197 9.7 12.9 0.00 0.00 0.00 43 1011.5
20220629021135 25 201 8.0 9.7 0.00 0.00 0.00 43 1011.4
20220629020137 25 203 8.0 11.3 0.00 0.00 0.00 42 1011.5
20220629015134 25 193 8.0 11.3 0.00 0.00 0.00 42 1011.7
20220629014135 25 171 4.8 9.7 0.00 0.00 0.00 41 1011.8
20220629013135 25 171 3.2 9.7 0.00 0.00 0.00 41 1011.8
20220629012135 25 180 6.4 9.7 0.00 0.00 0.00 41 1011.7
20220629011135 25 173 4.8 9.7 0.00 0.00 0.00 41 1011.9
20220629010138 25 195 8.0 11.3 0.00 0.00 0.00 41 1012.0
20220629005135 25 207 8.0 9.7 0.00 0.00 0.00 41 1012.0
20220629004135 26 221 4.8 9.7 0.00 0.00 0.00 38 1011.9
20220629003135 27 187 1.6 4.8 0.00 0.00 0.00 37 1012.0
20220629002135 27 153 1.6 4.8 0.00 0.00 0.00 36 1012.0
20220629001135 27 213 4.8 8.0 0.00 0.00 0.00 36 1012.0
20220629000137 26 244 3.2 4.8 0.00 0.00 0.00 36 1012.0
20220628235134 26 223 1.6 4.8 0.00 0.00 0.00 36 1011.9
20220628234135 26 201 4.8 8.0 0.00 0.00 0.00 36 1011.8
20220628233135 27 223 4.8 8.0 0.00 0.00 0.00 36 1012.0
20220628232134 27 195 3.2 4.8 0.00 0.00 0.00 35 1011.9
20220628231134 27 154 0.0 3.2 0.00 0.00 0.00 36 1012.1
20220628230135 26 130 0.0 3.2 0.00 0.00 0.00 36 1012.0
20220628225134 27 115 1.6 4.8 0.00 0.00 0.00 37 1012.0
20220628224134 27 92 3.2 8.0 0.00 0.00 0.00 36 1012.0
20220628223134 27 76 1.6 4.8 0.00 0.00 0.00 37 1012.0
20220628222134 27 126 4.8 4.8 0.00 0.00 0.00 38 1012.2
20220628221108 27 133 4.8 8.0 0.00 0.00 0.00 39 1012.2
20220628220136 27 149 3.2 4.8 0.00 0.00 0.00 39 1012.3
20220628215134 27 154 1.6 4.8 0.00 0.00 0.00 40 1012.4
20220628214134 27 151 3.2 4.8 0.00 0.00 0.00 40 1012.3
20220628213134 27 167 4.8 9.7 0.00 0.00 0.00 40 1012.3
20220628212134 27 124 4.8 8.0 0.00 0.00 0.00 40 1012.7
20220628211134 27 159 4.8 9.7 0.00 0.00 0.00 41 1012.5
20220628210136 28 135 3.2 9.7 0.00 0.00 0.00 41 1012.7
20220628205135 28 152 4.8 9.7 0.00 0.00 0.00 42 1012.8
20220628204134 28 187 4.8 4.8 0.00 0.00 0.00 42 1013.2
20220628203134 28 169 3.2 4.8 0.00 0.00 0.00 41 1013.1
20220628202134 29 162 4.8 8.0 0.00 0.00 0.00 40 1013.2
20220628201134 31 177 3.2 8.0 0.00 0.00 0.00 34 1013.1
20220628200138 31 218 4.8 8.0 0.00 0.00 0.00 33 1012.9
20220628195134 31 174 3.2 9.7 0.00 0.00 0.00 33 1012.8
20220628194134 31 194 8.0 8.0 0.00 0.00 0.00 34 1012.8
20220628193135 31 203 4.8 8.0 0.00 0.00 0.00 36 1012.7
20220628192135 31 204 8.0 9.7 0.00 0.00 0.00 36 1012.4
20220628191134 31 154 4.8 4.8 0.00 0.00 0.00 35 1012.2
20220628190136 32 152 4.8 8.0 0.00 0.00 0.00 34 1012.2
20220628185134 33 130 4.8 8.0 0.00 0.00 0.00 33 1012.2
20220628184136 33 135 8.0 9.7 0.00 0.00 0.00 33 1012.0
20220628183134 33 134 4.8 8.0 0.00 0.00 0.00 32 1012.0
20220628182134 34 135 4.8 8.0 0.00 0.00 0.00 33 1011.7
20220628181134 34 105 3.2 4.8 0.00 0.00 0.00 35 1011.9
20220628180135 35 96 0.0 4.8 0.00 0.00 0.00 34 1011.9
20220628175132 35 70 3.2 8.0 0.00 0.00 0.00 31 1011.9
20220628174132 36 135 4.8 12.9 0.00 0.00 0.00 28 1011.9
20220628173132 36 48 1.6 4.8 0.00 0.00 0.00 26 1012.0
20220628172134 37 26 1.6 4.8 0.00 0.00 0.00 23 1012.0
20220628171132 37 49 3.2 8.0 0.00 0.00 0.00 21 1012.0
20220628170135 37 17 1.6 9.7 0.00 0.00 0.00 20 1012.0
20220628165133 38 312 1.6 4.8 0.00 0.00 0.00 21 1012.1
20220628164135 38 24 3.2 11.3 0.00 0.00 0.00 22 1012.0
20220628163132 37 346 3.2 8.0 0.00 0.00 0.00 24 1012.0
20220628162134 38 88 4.8 9.7 0.00 0.00 0.00 24 1012.0
20220628161134 38 347 3.2 11.3 0.00 0.00 0.00 24 1012.1
20220628160133 38 326 3.2 11.3 0.00 0.00 0.00 25 1012.1
20220628155133 38 30 3.2 9.7 0.00 0.00 0.00 25 1012.1
20220628154132 38 33 4.8 12.9 0.00 0.00 0.00 25 1012.1
20220628153132 38 36 3.2 8.0 0.00 0.00 0.00 20 1012.1
20220628152132 38 76 3.2 11.3 0.00 0.00 0.00 21 1012.7
20220628151132 38 13 8.0 16.1 0.00 0.00 0.00 21 1012.7
20220628150135 38 87 4.8 16.1 0.00 0.00 0.00 21 1012.7
20220628145133 38 75 4.8 16.1 0.00 0.00 0.00 21 1012.8
20220628144133 37 81 9.7 16.1 0.00 0.00 0.00 21 1012.9
20220628143134 37 47 4.8 14.5 0.00 0.00 0.00 21 1013.1
20220628142134 37 0 8.0 14.5 0.00 0.00 0.00 22 1013.2
20220628141133 37 60 4.8 14.5 0.00 0.00 0.00 24 1013.5
20220628140134 37 3 6.4 14.5 0.00 0.00 0.00 24 1013.5
20220628135133 36 57 8.0 16.1 0.00 0.00 0.00 23 1013.5
20220628134134 36 39 8.0 16.1 0.00 0.00 0.00 23 1013.7
20220628133132 36 90 6.4 16.1 0.00 0.00 0.00 24 1013.8
20220628132132 36 99 4.8 14.5 0.00 0.00 0.00 24 1013.8
20220628131133 36 18 8.0 19.3 0.00 0.00 0.00 24 1014.0
20220628130134 36 17 8.0 16.1 0.00 0.00 0.00 23 1014.0
20220628125134 36 45 8.0 20.9 0.00 0.00 0.00 23 1014.0
20220628124134 35 64 9.7 19.3 0.00 0.00 0.00 23 1013.9
20220628123134 36 356 4.8 16.1 0.00 0.00 0.00 25 1013.9
20220628122132 36 24 3.2 12.9 0.00 0.00 0.00 24 1013.9
20220628121133 36 21 4.8 12.9 0.00 0.00 0.00 22 1013.9
20220628120133 36 26 4.8 12.9 0.00 0.00 0.00 22 1013.7
20220628115133 35 12 4.8 11.3 0.00 0.00 0.00 23 1014.1
20220628114132 35 4 4.8 16.1 0.00 0.00 0.00 26 1014.1
20220628113132 35 2 3.2 11.3 0.00 0.00 0.00 27 1014.3
20220628112132 34 353 3.2 8.0 0.00 0.00 0.00 30 1014.3
20220628111132 33 357 3.2 8.0 0.00 0.00 0.00 30 1014.3
20220628102151 33 46 3.2 9.7 0.00 0.00 0.00 28 1014.3
20220628101152 34 37 4.8 16.1 0.00 0.00 0.00 29 1014.4
20220628100154 35 347 4.8 16.1 0.00 0.00 0.00 24 1014.4
20220628095151 36 334 3.2 12.9 0.00 0.00 0.00 23 1014.4
20220628094152 36 314 4.8 12.9 0.00 0.00 0.00 23 1014.4
20220628093152 37 7 1.6 4.8 0.00 0.00 0.00 21 1014.4
20220628092151 37 318 3.2 9.7 0.00 0.00 0.00 20 1014.3
20220628091153 38 305 1.6 4.8 0.00 0.00 0.00 20 1014.3
20220628090153 37 269 3.2 4.8 0.00 0.00 0.00 21 1014.2
20220628085151 37 65 1.6 3.2 0.00 0.00 0.00 22 1014.2
20220628084152 36 322 1.6 4.8 0.00 0.00 0.00 22 1014.2
20220628083152 36 84 0.0 1.6 0.00 0.00 0.00 24 1014.2
20220628082153 35 132 0.0 4.8 0.00 0.00 0.00 24 1014.2
20220628081152 36 322 0.0 1.6 0.00 0.00 0.00 23 1014.2
20220628080154 35 322 0.0 3.2 0.00 0.00 0.00 23 1014.3
20220628075152 35 322 1.6 3.2 0.00 0.00 0.00 23 1014.3
20220628074151 35 63 1.6 3.2 0.00 0.00 0.00 24 1014.2
20220628073153 36 2 1.6 3.2 0.00 0.00 0.00 25 1014.3
20220628072152 35 8 1.6 3.2 0.00 0.00 0.00 26 1014.5
20220628071154 34 280 0.0 1.6 0.00 0.00 0.00 29 1014.4
20220628070154 33 279 0.0 3.2 0.00 0.00 0.00 32 1014.4
20220628065151 32 251 0.0 3.2 0.00 0.00 0.00 35 1014.3
20220628064151 31 238 1.6 4.8 0.00 0.00 0.00 39 1014.3
20220628063151 31 260 3.2 4.8 0.00 0.00 0.00 39 1014.3
20220628062151 30 243 3.2 4.8 0.00 0.00 0.00 42 1014.4
20220628061151 30 250 3.2 4.8 0.00 0.00 0.00 44 1014.4
20220628060153 28 256 3.2 4.8 0.00 0.00 0.00 45 1014.4
20220628055151 28 241 3.2 4.8 0.00 0.00 0.00 46 1014.2
20220628054151 27 245 4.8 4.8 0.00 0.00 0.00 47 1014.2
20220628053151 27 244 3.2 8.0 0.00 0.00 0.00 47 1013.7
20220628052152 26 214 4.8 8.0 0.00 0.00 0.00 47 1013.7
20220628051153 25 155 3.2 8.0 0.00 0.00 0.00 48 1013.6
20220628050154 25 125 4.8 8.0 0.00 0.00 0.00 48 1013.5
20220628045151 25 151 4.8 9.7 0.00 0.00 0.00 48 1013.4
20220628044153 24 159 4.8 8.0 0.00 0.00 0.00 49 1013.4
20220628043152 24 154 4.8 8.0 0.00 0.00 0.00 48 1013.4
20220628042151 23 147 8.0 8.0 0.00 0.00 0.00 48 1013.5
20220628041151 24 142 4.8 8.0 0.00 0.00 0.00 46 1013.5
20220628040153 25 153 3.2 4.8 0.00 0.00 0.00 44 1013.6
20220628035152 25 186 4.8 4.8 0.00 0.00 0.00 44 1013.5
20220628034151 24 178 4.8 4.8 0.00 0.00 0.00 45 1013.3
20220628033151 24 174 3.2 8.0 0.00 0.00 0.00 46 1013.3
20220628032152 24 176 3.2 8.0 0.00 0.00 0.00 46 1013.4
20220628031151 24 170 1.6 4.8 0.00 0.00 0.00 47 1013.3